Regional Weather Roundup
Issued by NWS San Angelo, TX

Home | Current Version | Previous Version | Text Only | Print | Product List | Glossary On
Versions: 1 2 3 4 5 6 7 8 9 10 11 12 13 14 15 16 17 18 19 20 21 22 23 24 25 26 27 28 29 30 31 32 33 34 35 36 37 38 39 40 41 42 43 44 45 46 47 48 49 50
000
ASUS44 KSJT 220110
RWRSJT
WEST CENTRAL TEXAS REGIONAL WEATHER ROUNDUP
NATIONAL WEATHER SERVICE SAN ANGELO TX
800 PM CDT THU SEP 21 2017

NOTE: "FAIR" INDICATES FEW OR NO CLOUDS BELOW 12,000 FEET WITH NO
SIGNIFICANT WEATHER AND/OR OBSTRUCTIONS TO VISIBILITY.

TXZ049-054-064>066-071>073-076>078-098-099-113-114-127-128-139-140-
154-155-168>170-220200
...LOCATIONS ACROSS WEST CENTRAL TEXAS...

CITY           SKY/WX    TMP DP  RH WIND       PRES   REMARKS
SAN ANGELO     CLEAR     90  58  33 SE9       29.84R
ABILENE        CLEAR     88  63  43 SE14      29.85S
DYESS AFB      PTCLDY    89  64  43 SE13      29.84R
JUNCTION       CLEAR     89  61  38 SE10      29.88R
SWEETWATER     CLEAR     88  58  36 SE10      29.90R
BROWNWOOD      CLEAR     88  63  42 SE12      29.87R
COLEMAN        CLEAR     87  62  41 SE12      29.87R
SONORA         CLEAR     88  63  42 S8        29.93R
OZONA          FAIR      86  59  39 S12G22    29.91R
BRADY          NOT AVBL
$$

TEXAS PANHANDLE/OKLAHOMA PANHANDLE

CITY           SKY/WX    TMP DP  RH WIND       PRES   REMARKS
AMARILLO       CLEAR     86  51  29 S16       29.86R
BORGER         CLEAR     89  51  27 S14       29.81R
CANADIAN       CLEAR     88  60  39 S12       29.78R
DALHART        CLEAR     82  41  23 S13       29.83S
DUMAS          CLEAR     80  44  28 S9        29.83S
GUYMON         NOT AVBL
HEREFORD       CLEAR     82  44  26 S9        29.87S
PAMPA          CLEAR     85  50  29 S10       29.85R
PERRYTON       CLEAR     88  55  32 S14       29.78R
$$

SOUTHERN PANHANDLE/SOUTH PLAINS/ROLLING PLAINS

CITY           SKY/WX    TMP DP  RH WIND       PRES   REMARKS
LUBBOCK        PTCLDY    87  56  34 S16       29.86R
SNYDER         CLEAR     89  58  34 SE12      29.86S
CHILDRESS      MOCLDY    88  63  43 S10       29.80R
SEMINOLE       CLEAR     87  55  32 SE13      29.88R
$$

PERMIAN BASIN

CITY           SKY/WX    TMP DP  RH WIND       PRES   REMARKS
MIDLAND        CLEAR     88  58  36 S9        29.86R
ODESSA         MOCLDY    86  58  38 S17       29.88R
WINK           MOCLDY    90  54  29 SE15      29.81R
$$

FAR WEST/SOUTHWEST MOUNTAINS/TRANS PECOS

CITY           SKY/WX    TMP DP  RH WIND       PRES   REMARKS
ALPINE         CLEAR     80  54  40 CALM      30.02S
DRYDEN           N/A     86  67  52 SE14      29.85R
EL PASO        PTCLDY    89  43  20 S9        29.87F
FORT STOCKTON  CLEAR     86  64  47 SE17G26   29.86R
GUADALUPE PASS PTCLDY    82  47  29 VRB7      30.02R
MARFA          CLEAR     82  49  31 S5        30.00S
PECOS          CLEAR     88  55  32 E9        29.81R
$$

DALLAS/FORT WORTH METROPLEX

CITY           SKY/WX    TMP DP  RH WIND       PRES   REMARKS
DFW AIRPORT    PTCLDY    90  66  45 SE12      29.84S
FTW MEACHAM    CLEAR     91  67  44 SE12      29.84S
DAL-EXECUTIVE  PTCLDY    85  71  63 SE18G30   29.87R
GRAND PRAIRIE  CLEAR     90  66  45 SE16      29.88R
ADDISON        CLEAR     90  66  45 SE10      29.87S
MESQUITE       CLEAR     84  68  58 SE14G21   29.89R
LANCASTER      CLEAR     83  69  62 SE14      29.89R
$$

NORTH CENTRAL TEXAS

CITY           SKY/WX    TMP DP  RH WIND       PRES   REMARKS
SHRMAN/DENISON CLEAR     85  69  57 SE7       29.89R
GAINESVILLE    CLEAR     84  68  57 SE9       29.89R
BRIDGEPORT     CLEAR     86  65  49 SE6       29.87S
DENTON         CLEAR     87  69  54 SE10      29.85S
WAXAHACHIE     CLEAR     83  70  64 SE12G21   29.90R
GRANBURY       CLEAR     90  65  44 SE10      29.86S
$$

WESTERN NORTH TEXAS

CITY           SKY/WX    TMP DP  RH WIND       PRES   REMARKS
WICHITA FALLS  PTCLDY    87  69  54 SE16      29.82R
VERNON         CLEAR     91  60  35 SE16      29.81R
BRECKENRIDGE   CLEAR     90  63  39 SE10      29.85R
COMANCHE       CLEAR     87  64  46 SE9       29.88R
$$

CENTRAL AND SOUTH CENTRAL TEXAS

CITY           SKY/WX    TMP DP  RH WIND       PRES   REMARKS
AUSTIN/BERGSTM PTCLDY    81  70  69 S7        29.89R
WACO           CLEAR     85  71  63 SE16G22   29.88R
HILLSBORO      CLEAR     87  70  57 SE17      29.88R
TEMPLE         CLEAR     82  73  74 SE13      29.90R
KILLEEN-GRAY   CLEAR     80  71  72 SE14      29.89R
FORT HOOD      CLEAR     80  71  71 SE14      29.86R
GEORGETOWN     CLEAR     80  71  74 S8        29.92R
LAGO VISTA     FAIR      80  70  71 SE6       29.93R
SAN MARCOS     CLEAR     79  71  76 S12       29.91R
NEW BRAUNFELS  CLEAR     80  70  71 S18       29.89R
RANDOLPH AFB   CLOUDY    74  71  88 E8        29.91S
SAN ANTONIO    CLOUDY    79  69  71 E8        29.91R
STINSON        CLOUDY    77  72  84 S6        29.87F
PLEASANTON     NOT AVBL
LA GRANGE      PTCLDY    78  73  83 SE6       29.90R
GIDDINGS       CLEAR     77  70  77 SE6       29.92R
$$

EAST TEXAS

CITY           SKY/WX    TMP DP  RH WIND       PRES   REMARKS
PARIS          CLEAR     82  71  69 SE8       29.91S
CLARKSVILLE    NOT AVBL
TYLER          CLOUDY    77  71  82 SE10      29.93S
LONGVIEW       CLOUDY    76  71  85 S3        29.93S
PALESTINE      CLOUDY    78  74  85 SE6       29.93S
NACOGDOCHES    CLOUDY    73  72  96 SE3       29.95R
$$

TEXAS HILL COUNTRY AND EDWARDS PLATEAU

CITY           SKY/WX    TMP DP  RH WIND       PRES   REMARKS
LLANO          CLEAR     88  66  48 E7        29.91R
HORSESHOE BAY  FAIR      82  69  64 SE8       29.90R
KERRVILLE      PTCLDY    85  70  61 SE13      29.91R
FREDERICKSBRG  PTCLDY    84  65  53 SE7       29.92R
ROCKSPRINGS    NOT AVBL
HONDO          CLOUDY    81  68  64 E12       29.90R HAZE
UVALDE         MOCLDY    87  70  56 SE25G31   29.85R
DEL RIO        CLOUDY    91  69  48 SE10      29.80R
$$

SOUTHEAST TEXAS

CITY           SKY/WX    TMP DP  RH WIND       PRES   REMARKS
COLLEGE STN    PTCLDY    79  72  79 S14       29.91S
CALDWELL       CLEAR     77  71  80 SE7       29.91S
CROCKETT       CLOUDY    79  73  83 E3        29.96R
BRENHAM        CLEAR     77  73  87 SE5       29.92R
HUNTSVILLE     CLOUDY    79  71  76 VRB5      29.93S
CONROE         MOCLDY    75  73  93 E3        29.93S
HOUSTON BUSH   CLOUDY    77  73  87 S3        29.92S
HOUSTON HOBBY  CLOUDY    78  74  87 E3        29.91F
PERLAND        CLOUDY    78  73  84 CALM      29.93S
WHARTON        CLOUDY    73  71  92 E3        29.93S
$$

THE UPPER TEXAS COAST

CITY           SKY/WX    TMP DP  RH WIND       PRES   REMARKS
ORANGE         PTCLDY    78  74  86 S3        29.96S
PORT ARTHUR    CLOUDY    77  74  90 S5        29.94R
GALVESTON      CLOUDY    83  77  82 SE13      29.92S
ANGLETON       CLOUDY    77  74  90 E8        29.92R
BAY CITY       CLOUDY    76  75  98 NE7       29.91R
$$

TEXAS COASTAL BEND, RIO GRANDE PLAINS DEEP SOUTH TEXAS

CITY           SKY/WX    TMP DP  RH WIND       PRES   REMARKS
VICTORIA       CLOUDY    77  73  87 SE8       29.87F
BEEVILLE       FAIR      82  81  99 E10       29.89R
ROCKPORT       CLOUDY    83  77  82 SE10      29.87F
PORT ARANSAS   NOT AVBL
PORT LAVACA    NOT AVBL
CORPUS CHRISTI CLOUDY    83  77  82 SE13      29.87R
KINGSVILLE NAS CLOUDY    82  81  96 SE9       29.85S
COTULLA        PTCLDY    88  64  44 SE18G28   29.84R
LAREDO         PTCLDY    86  71  60 E12       29.84R
BROWNSVILLE    CLOUDY    84  78  82 SE17      29.85S
PORT ISABEL    CLOUDY    85  78  80 SE16      29.84F
HEBBRONVILLE   MOCLDY    80  72  76 SE13      29.87R
MCALLEN        PTCLDY    90  73  57 SE20      29.82R
WESLACO        CLOUDY    87  73  62 SE14      29.82S
FALFURRIAS     CLOUDY   -38  32 100 E9        29.85R WCI -62
EDINBURG       CLOUDY    89  72  57 SE15      29.83R
$$



USA.gov is the U.S. government's official web portal to all federal, state and local government web resources and services.